Year,Month,Day,Hour,Minute,Value (Times are PST for temperature in C)
2013,07,24,00,00,20.80
2013,07,24,00,01,20.80
2013,07,24,00,02,20.70
2013,07,24,00,03,20.70
2013,07,24,00,04,20.50
2013,07,24,00,05,20.40
2013,07,24,00,06,20.30
2013,07,24,00,07,20.10
2013,07,24,00,08,20.00
2013,07,24,00,09,19.80
2013,07,24,00,10,19.70
2013,07,24,00,11,19.50
2013,07,24,00,12,19.40
2013,07,24,00,13,19.30
2013,07,24,00,14,19.20
2013,07,24,00,15,19.10
2013,07,24,00,16,19.00
2013,07,24,00,17,18.90
2013,07,24,00,18,18.80
2013,07,24,00,19,18.80
2013,07,24,00,20,18.70
2013,07,24,00,21,18.60
2013,07,24,00,22,18.60
2013,07,24,00,23,18.60
2013,07,24,00,24,18.60
2013,07,24,00,25,18.50
2013,07,24,00,26,18.50
2013,07,24,00,27,18.50
2013,07,24,00,28,18.50
2013,07,24,00,29,18.40
2013,07,24,00,30,18.40
2013,07,24,00,31,18.30
2013,07,24,00,32,18.30
2013,07,24,00,33,18.20
2013,07,24,00,34,18.20
2013,07,24,00,35,18.10
2013,07,24,00,36,18.10
2013,07,24,00,37,18.00
2013,07,24,00,38,18.00
2013,07,24,00,39,18.00
2013,07,24,00,40,18.10
2013,07,24,00,41,18.20
2013,07,24,00,42,18.30
2013,07,24,00,43,18.40
2013,07,24,00,44,18.40
2013,07,24,00,45,18.50
2013,07,24,00,46,18.70
2013,07,24,00,47,18.80
2013,07,24,00,48,18.80
2013,07,24,00,49,18.90
2013,07,24,00,50,19.00
2013,07,24,00,51,19.10
2013,07,24,00,52,19.10
2013,07,24,00,53,19.20
2013,07,24,00,54,19.20
2013,07,24,00,55,19.20
2013,07,24,00,56,19.20
2013,07,24,00,57,19.20
2013,07,24,00,58,19.20
2013,07,24,00,59,19.20
2013,07,24,01,00,19.10
2013,07,24,01,01,19.00
2013,07,24,01,02,18.90
2013,07,24,01,03,18.90
2013,07,24,01,04,18.80
2013,07,24,01,05,18.80
2013,07,24,01,06,18.70
2013,07,24,01,07,18.70
2013,07,24,01,08,18.60
2013,07,24,01,09,18.60
2013,07,24,01,10,18.50
2013,07,24,01,11,18.50
2013,07,24,01,12,18.40
2013,07,24,01,13,18.30
2013,07,24,01,14,18.20
2013,07,24,01,15,18.10
2013,07,24,01,16,18.10
2013,07,24,01,17,18.00
2013,07,24,01,18,17.90
2013,07,24,01,19,17.80
2013,07,24,01,20,17.70
2013,07,24,01,21,17.60
2013,07,24,01,22,17.60
2013,07,24,01,23,17.60
2013,07,24,01,24,17.60
2013,07,24,01,25,17.60
2013,07,24,01,26,17.60
2013,07,24,01,27,17.60
2013,07,24,01,28,17.60
2013,07,24,01,29,17.70
2013,07,24,01,30,17.70
2013,07,24,01,31,17.80
2013,07,24,01,32,17.90
2013,07,24,01,33,18.00
2013,07,24,01,34,18.10
2013,07,24,01,35,18.30
2013,07,24,01,36,18.40
2013,07,24,01,37,18.50
2013,07,24,01,38,18.60
2013,07,24,01,39,18.70
2013,07,24,01,40,18.80
2013,07,24,01,41,18.90
2013,07,24,01,42,19.00
2013,07,24,01,43,19.10
2013,07,24,01,44,19.20
2013,07,24,01,45,19.20
2013,07,24,01,46,19.30
2013,07,24,01,47,19.30
2013,07,24,01,48,19.30
2013,07,24,01,49,19.30
2013,07,24,01,50,19.30
2013,07,24,01,51,19.30
2013,07,24,01,52,19.30
2013,07,24,01,53,19.30
2013,07,24,01,54,19.30
2013,07,24,01,55,19.30
2013,07,24,01,56,19.30
2013,07,24,01,57,19.30
2013,07,24,01,58,19.30
2013,07,24,01,59,19.30
2013,07,24,02,00,19.30
2013,07,24,02,01,19.30
2013,07,24,02,02,19.40
2013,07,24,02,03,19.40
2013,07,24,02,04,19.30
2013,07,24,02,05,19.30
2013,07,24,02,06,19.20
2013,07,24,02,07,19.10
2013,07,24,02,08,19.00
2013,07,24,02,09,18.90
2013,07,24,02,10,18.80
2013,07,24,02,11,18.60
2013,07,24,02,12,18.50
2013,07,24,02,13,18.30
2013,07,24,02,14,18.20
2013,07,24,02,15,18.00
2013,07,24,02,16,17.90
2013,07,24,02,17,17.70
2013,07,24,02,18,17.50
2013,07,24,02,19,17.40
2013,07,24,02,20,17.30
2013,07,24,02,21,17.10
2013,07,24,02,22,17.00
2013,07,24,02,23,16.90
2013,07,24,02,24,16.80
2013,07,24,02,25,16.70
2013,07,24,02,26,16.50
2013,07,24,02,27,16.50
2013,07,24,02,28,16.40
2013,07,24,02,29,16.30
2013,07,24,02,30,16.30
2013,07,24,02,31,16.30
2013,07,24,02,32,16.20
2013,07,24,02,33,16.20
2013,07,24,02,34,16.20
2013,07,24,02,35,16.20
2013,07,24,02,36,16.30
2013,07,24,02,37,16.40
2013,07,24,02,38,16.40
2013,07,24,02,39,16.50
2013,07,24,02,40,16.60
2013,07,24,02,41,16.60
2013,07,24,02,42,16.60
2013,07,24,02,43,16.60
2013,07,24,02,44,16.50
2013,07,24,02,45,16.50
2013,07,24,02,46,16.40
2013,07,24,02,47,16.40
2013,07,24,02,48,16.30
2013,07,24,02,49,16.20
2013,07,24,02,50,16.20
2013,07,24,02,51,16.10
2013,07,24,02,52,16.00
2013,07,24,02,53,16.00
2013,07,24,02,54,15.90
2013,07,24,02,55,15.80
2013,07,24,02,56,15.80
2013,07,24,02,57,15.80
2013,07,24,02,58,15.80
2013,07,24,02,59,15.70
2013,07,24,03,00,15.70
2013,07,24,03,01,15.70
2013,07,24,03,02,15.70
2013,07,24,03,03,15.70
2013,07,24,03,04,15.70
2013,07,24,03,05,15.60
2013,07,24,03,06,15.60
2013,07,24,03,07,15.60
2013,07,24,03,08,15.50
2013,07,24,03,09,15.50
2013,07,24,03,10,15.40
2013,07,24,03,11,15.40
2013,07,24,03,12,15.40
2013,07,24,03,13,15.40
2013,07,24,03,14,15.30
2013,07,24,03,15,15.30
2013,07,24,03,16,15.30
2013,07,24,03,17,15.30
2013,07,24,03,18,15.30
2013,07,24,03,19,15.20
2013,07,24,03,20,15.20
2013,07,24,03,21,15.20
2013,07,24,03,22,15.20
2013,07,24,03,23,15.10
2013,07,24,03,24,15.10
2013,07,24,03,25,15.10
2013,07,24,03,26,15.10
2013,07,24,03,27,15.00
2013,07,24,03,28,15.00
2013,07,24,03,29,15.00
2013,07,24,03,30,14.90
2013,07,24,03,31,14.90
2013,07,24,03,32,14.90
2013,07,24,03,33,14.90
2013,07,24,03,34,14.90
2013,07,24,03,35,14.80
2013,07,24,03,36,14.80
2013,07,24,03,37,14.80
2013,07,24,03,38,14.80
2013,07,24,03,39,14.70
2013,07,24,03,40,14.70
2013,07,24,03,41,14.70
2013,07,24,03,42,14.60
2013,07,24,03,43,14.60
2013,07,24,03,44,14.50
2013,07,24,03,45,14.40
2013,07,24,03,46,14.40
2013,07,24,03,47,14.30
2013,07,24,03,48,14.30
2013,07,24,03,49,14.30
2013,07,24,03,50,14.30
2013,07,24,03,51,14.30
2013,07,24,03,52,14.30
2013,07,24,03,53,14.30
2013,07,24,03,54,14.20
2013,07,24,03,55,14.20
2013,07,24,03,56,14.30
2013,07,24,03,57,14.30
2013,07,24,03,58,14.30
2013,07,24,03,59,14.30
2013,07,24,04,00,14.30
2013,07,24,04,01,14.30
2013,07,24,04,02,14.30
2013,07,24,04,03,14.30
2013,07,24,04,04,14.30
2013,07,24,04,05,14.30
2013,07,24,04,06,14.30
2013,07,24,04,07,14.20
2013,07,24,04,08,14.20
2013,07,24,04,09,14.20
2013,07,24,04,10,14.20
2013,07,24,04,11,14.20
2013,07,24,04,12,14.20
2013,07,24,04,13,14.20
2013,07,24,04,14,14.20
2013,07,24,04,15,14.20
2013,07,24,04,16,14.20
2013,07,24,04,17,14.20
2013,07,24,04,18,14.20
2013,07,24,04,19,14.20
2013,07,24,04,20,14.20
2013,07,24,04,21,14.20
2013,07,24,04,22,14.20
2013,07,24,04,23,14.20
2013,07,24,04,24,14.20
2013,07,24,04,25,14.20
2013,07,24,04,26,14.20
2013,07,24,04,27,14.20
2013,07,24,04,28,14.20
2013,07,24,04,29,14.20
2013,07,24,04,30,14.20
2013,07,24,04,31,14.20
2013,07,24,04,32,14.20
2013,07,24,04,33,14.20
2013,07,24,04,34,14.20
2013,07,24,04,35,14.10
2013,07,24,04,36,14.10
2013,07,24,04,37,14.10
2013,07,24,04,38,14.10
2013,07,24,04,39,14.10
2013,07,24,04,40,14.10
2013,07,24,04,41,14.10
2013,07,24,04,42,14.10
2013,07,24,04,43,14.10
2013,07,24,04,44,14.00
2013,07,24,04,45,14.00
2013,07,24,04,46,14.00
2013,07,24,04,47,14.00
2013,07,24,04,48,14.00
2013,07,24,04,49,14.00
2013,07,24,04,50,14.00
2013,07,24,04,51,14.00
2013,07,24,04,52,13.90
2013,07,24,04,53,13.90
2013,07,24,04,54,13.90
2013,07,24,04,55,13.90
2013,07,24,04,56,13.90
2013,07,24,04,57,13.90
2013,07,24,04,58,13.90
2013,07,24,04,59,13.80
2013,07,24,05,00,13.80
2013,07,24,05,01,13.80
2013,07,24,05,02,13.80
2013,07,24,05,03,13.80
2013,07,24,05,04,13.80
2013,07,24,05,05,13.80
2013,07,24,05,06,13.70
2013,07,24,05,07,13.70
2013,07,24,05,08,13.70
2013,07,24,05,09,13.70
2013,07,24,05,10,13.70
2013,07,24,05,11,13.70
2013,07,24,05,12,13.70
2013,07,24,05,13,13.70
2013,07,24,05,14,13.60
2013,07,24,05,15,13.60
2013,07,24,05,16,13.60
2013,07,24,05,17,13.60
2013,07,24,05,18,13.60
2013,07,24,05,19,13.60
2013,07,24,05,20,13.60
2013,07,24,05,21,13.50
2013,07,24,05,22,13.50
2013,07,24,05,23,13.50
2013,07,24,05,24,13.40
2013,07,24,05,25,13.40
2013,07,24,05,26,13.40
2013,07,24,05,27,13.40
2013,07,24,05,28,13.30
2013,07,24,05,29,13.30
2013,07,24,05,30,13.30
2013,07,24,05,31,13.30
2013,07,24,05,32,13.30
2013,07,24,05,33,13.30
2013,07,24,05,34,13.30
2013,07,24,05,35,13.30
2013,07,24,05,36,13.30
2013,07,24,05,37,13.30
2013,07,24,05,38,13.20
2013,07,24,05,39,13.20
2013,07,24,05,40,13.20
2013,07,24,05,41,13.20
2013,07,24,05,42,13.20
2013,07,24,05,43,13.10
2013,07,24,05,44,13.10
2013,07,24,05,45,13.10
2013,07,24,05,46,13.10
2013,07,24,05,47,13.10
2013,07,24,05,48,13.10
2013,07,24,05,49,13.10
2013,07,24,05,50,13.20
2013,07,24,05,51,13.10
2013,07,24,05,52,13.10
2013,07,24,05,53,13.10
2013,07,24,05,54,13.10
2013,07,24,05,55,13.20
2013,07,24,05,56,13.20
2013,07,24,05,57,13.20
2013,07,24,05,58,13.20
2013,07,24,05,59,13.20
2013,07,24,06,00,13.20
2013,07,24,06,01,13.20
2013,07,24,06,02,13.20
2013,07,24,06,03,13.20
2013,07,24,06,04,13.20
2013,07,24,06,05,13.20
2013,07,24,06,06,13.10
2013,07,24,06,07,13.10
2013,07,24,06,08,13.10
2013,07,24,06,09,13.10
2013,07,24,06,10,13.10
2013,07,24,06,11,13.10
2013,07,24,06,12,13.10
2013,07,24,06,13,13.10
2013,07,24,06,14,13.20
2013,07,24,06,15,13.20
2013,07,24,06,16,13.20
2013,07,24,06,17,13.20
2013,07,24,06,18,13.20
2013,07,24,06,19,13.20
2013,07,24,06,20,13.20
2013,07,24,06,21,13.20
2013,07,24,06,22,13.20
2013,07,24,06,23,13.20
2013,07,24,06,24,13.20
2013,07,24,06,25,13.20
2013,07,24,06,26,13.30
2013,07,24,06,27,13.30
2013,07,24,06,28,13.30
2013,07,24,06,29,13.30
2013,07,24,06,30,13.30
2013,07,24,06,31,13.30
2013,07,24,06,32,13.30
2013,07,24,06,33,13.30
2013,07,24,06,34,13.30
2013,07,24,06,35,13.30
2013,07,24,06,36,13.30
2013,07,24,06,37,13.30
2013,07,24,06,38,13.30
2013,07,24,06,39,13.30
2013,07,24,06,40,13.40
2013,07,24,06,41,13.40
2013,07,24,06,42,13.40
2013,07,24,06,43,13.50
2013,07,24,06,44,13.50
2013,07,24,06,45,13.50
2013,07,24,06,46,13.60
2013,07,24,06,47,13.60
2013,07,24,06,48,13.70
2013,07,24,06,49,13.70
2013,07,24,06,50,13.80
2013,07,24,06,51,13.90
2013,07,24,06,52,13.90
2013,07,24,06,53,14.00
2013,07,24,06,54,14.10
2013,07,24,06,55,14.20
2013,07,24,06,56,14.20
2013,07,24,06,57,14.30
2013,07,24,06,58,14.40
2013,07,24,06,59,14.40
2013,07,24,07,00,14.50
2013,07,24,07,01,14.60
2013,07,24,07,02,14.70
2013,07,24,07,03,14.80
2013,07,24,07,04,14.90
2013,07,24,07,05,15.00
2013,07,24,07,06,15.10
2013,07,24,07,07,15.20
2013,07,24,07,08,15.30
2013,07,24,07,09,15.50
2013,07,24,07,10,15.60
2013,07,24,07,11,15.80
2013,07,24,07,12,15.90
2013,07,24,07,13,16.00
2013,07,24,07,14,16.20
2013,07,24,07,15,16.30
2013,07,24,07,16,16.40
2013,07,24,07,17,16.50
2013,07,24,07,18,16.60
2013,07,24,07,19,16.70
2013,07,24,07,20,16.90
2013,07,24,07,21,17.00
2013,07,24,07,22,17.10
2013,07,24,07,23,17.20
2013,07,24,07,24,17.40
2013,07,24,07,25,17.50
2013,07,24,07,26,17.60
2013,07,24,07,27,17.70
2013,07,24,07,28,17.80
2013,07,24,07,29,17.90
2013,07,24,07,30,18.00
2013,07,24,07,31,18.00
2013,07,24,07,32,18.10
2013,07,24,07,33,18.10
2013,07,24,07,34,18.20
2013,07,24,07,35,18.20
2013,07,24,07,36,18.20
2013,07,24,07,37,18.30
2013,07,24,07,38,18.30
2013,07,24,07,39,18.40
2013,07,24,07,40,18.40
2013,07,24,07,41,18.40
2013,07,24,07,42,18.50
2013,07,24,07,43,18.50
2013,07,24,07,44,18.60
2013,07,24,07,45,18.60
2013,07,24,07,46,18.60
2013,07,24,07,47,18.60
2013,07,24,07,48,18.70
2013,07,24,07,49,18.70
2013,07,24,07,50,18.70
2013,07,24,07,51,18.70
2013,07,24,07,52,18.70
2013,07,24,07,53,18.70
2013,07,24,07,54,18.80
2013,07,24,07,55,18.80
2013,07,24,07,56,18.80
2013,07,24,07,57,18.80
2013,07,24,07,58,18.80
2013,07,24,07,59,18.90
2013,07,24,08,00,18.90
2013,07,24,08,01,18.90
2013,07,24,08,02,19.00
2013,07,24,08,03,19.10
2013,07,24,08,04,19.10
2013,07,24,08,05,19.10
2013,07,24,08,06,19.20
2013,07,24,08,07,19.20
2013,07,24,08,08,19.20
2013,07,24,08,09,19.20
2013,07,24,08,10,19.20
2013,07,24,08,11,19.20
2013,07,24,08,12,19.10
2013,07,24,08,13,19.10
2013,07,24,08,14,19.10
2013,07,24,08,15,19.10
2013,07,24,08,16,19.10
2013,07,24,08,17,19.10
2013,07,24,08,18,19.00
2013,07,24,08,19,18.90
2013,07,24,08,20,18.90
2013,07,24,08,21,18.90
2013,07,24,08,22,18.90
2013,07,24,08,23,18.90
2013,07,24,08,24,18.90
2013,07,24,08,25,18.80
2013,07,24,08,26,18.80
2013,07,24,08,27,18.80
2013,07,24,08,28,18.80
2013,07,24,08,29,18.80
2013,07,24,08,30,18.80
2013,07,24,08,31,18.80
2013,07,24,08,32,18.70
2013,07,24,08,33,18.70
2013,07,24,08,34,18.80
2013,07,24,08,35,18.80
2013,07,24,08,36,18.80
2013,07,24,08,37,18.70
2013,07,24,08,38,18.60
2013,07,24,08,39,18.60
2013,07,24,08,40,18.60
2013,07,24,08,41,18.60
2013,07,24,08,42,18.60
2013,07,24,08,43,18.60
2013,07,24,08,44,18.60
2013,07,24,08,45,18.50
2013,07,24,08,46,18.50
2013,07,24,08,47,18.40
2013,07,24,08,48,18.40
2013,07,24,08,49,18.40
2013,07,24,08,50,18.40
2013,07,24,08,51,18.30
2013,07,24,08,52,18.30
2013,07,24,08,53,18.30
2013,07,24,08,54,18.40
2013,07,24,08,55,18.40
2013,07,24,08,56,18.40
2013,07,24,08,57,18.40
2013,07,24,08,58,18.40
2013,07,24,08,59,18.50
2013,07,24,09,00,18.60
2013,07,24,09,01,18.60
2013,07,24,09,02,18.50
2013,07,24,09,03,18.60
2013,07,24,09,04,18.60
2013,07,24,09,05,18.60
2013,07,24,09,06,18.70
2013,07,24,09,07,18.70
2013,07,24,09,08,18.80
2013,07,24,09,09,18.80
2013,07,24,09,10,18.90
2013,07,24,09,11,19.00
2013,07,24,09,12,19.00
2013,07,24,09,13,19.10
2013,07,24,09,14,19.20
2013,07,24,09,15,19.30
2013,07,24,09,16,19.40
2013,07,24,09,17,19.40
2013,07,24,09,18,19.40
2013,07,24,09,19,19.40
2013,07,24,09,20,19.30
2013,07,24,09,21,19.30
2013,07,24,09,22,19.20
2013,07,24,09,23,19.20
2013,07,24,09,24,19.20
2013,07,24,09,25,19.20
2013,07,24,09,26,19.20
2013,07,24,09,27,19.30
2013,07,24,09,28,19.30
2013,07,24,09,29,19.30
2013,07,24,09,30,19.20
2013,07,24,09,31,19.20
2013,07,24,09,32,19.10
2013,07,24,09,33,19.10
2013,07,24,09,34,19.00
2013,07,24,09,35,19.00
2013,07,24,09,36,19.00
2013,07,24,09,37,19.10
2013,07,24,09,38,19.10
2013,07,24,09,39,19.10
2013,07,24,09,40,19.10
2013,07,24,09,41,19.10
2013,07,24,09,42,19.00
2013,07,24,09,43,19.10
2013,07,24,09,44,19.10
2013,07,24,09,45,19.10
2013,07,24,09,46,19.10
2013,07,24,09,47,19.10
2013,07,24,09,48,19.10
2013,07,24,09,49,19.10
2013,07,24,09,50,19.10
2013,07,24,09,51,19.10
2013,07,24,09,52,19.10
2013,07,24,09,53,19.10
2013,07,24,09,54,19.10
2013,07,24,09,55,19.20
2013,07,24,09,56,19.30
2013,07,24,09,57,19.30
2013,07,24,09,58,19.30
2013,07,24,09,59,19.30
2013,07,24,10,00,19.30
2013,07,24,10,01,19.20
2013,07,24,10,02,19.10
2013,07,24,10,03,19.00
2013,07,24,10,04,18.90
2013,07,24,10,05,18.80
2013,07,24,10,06,18.80
2013,07,24,10,07,18.70
2013,07,24,10,08,18.70
2013,07,24,10,09,18.70
2013,07,24,10,10,18.70
2013,07,24,10,11,18.70
2013,07,24,10,12,18.70
2013,07,24,10,13,18.80
2013,07,24,10,14,18.80
2013,07,24,10,15,18.90
2013,07,24,10,16,18.90
2013,07,24,10,17,18.90
2013,07,24,10,18,18.80
2013,07,24,10,19,18.80
2013,07,24,10,20,18.80
2013,07,24,10,21,18.70
2013,07,24,10,22,18.70
2013,07,24,10,23,18.60
2013,07,24,10,24,18.60
2013,07,24,10,25,18.60
2013,07,24,10,26,18.60
2013,07,24,10,27,18.60
2013,07,24,10,28,18.70
2013,07,24,10,29,18.70
2013,07,24,10,30,18.80
2013,07,24,10,31,18.80
2013,07,24,10,32,18.80
2013,07,24,10,33,18.80
2013,07,24,10,34,18.80
2013,07,24,10,35,18.80
2013,07,24,10,36,18.80
2013,07,24,10,37,18.90
2013,07,24,10,38,18.90
2013,07,24,10,39,18.90
2013,07,24,10,40,19.00
2013,07,24,10,41,19.00
2013,07,24,10,42,19.10
2013,07,24,10,43,19.20
2013,07,24,10,44,19.20
2013,07,24,10,45,19.30
2013,07,24,10,46,19.40
2013,07,24,10,47,19.40
2013,07,24,10,48,19.40
2013,07,24,10,49,19.40
2013,07,24,10,50,19.50
2013,07,24,10,51,19.50
2013,07,24,10,52,19.60
2013,07,24,10,53,19.60
2013,07,24,10,54,19.50
2013,07,24,10,55,19.40
2013,07,24,10,56,19.40
2013,07,24,10,57,19.30
2013,07,24,10,58,19.30
2013,07,24,10,59,19.30
2013,07,24,11,00,19.30
2013,07,24,11,01,19.30
2013,07,24,11,02,19.30
2013,07,24,11,03,19.40
2013,07,24,11,04,19.40
2013,07,24,11,05,19.40
2013,07,24,11,06,19.50
2013,07,24,11,07,19.50
2013,07,24,11,08,19.40
2013,07,24,11,09,19.40
2013,07,24,11,10,19.30
2013,07,24,11,11,19.30
2013,07,24,11,12,19.30
2013,07,24,11,13,19.30
2013,07,24,11,14,19.40
2013,07,24,11,15,19.40
2013,07,24,11,16,19.50
2013,07,24,11,17,19.50
2013,07,24,11,18,19.50
2013,07,24,11,19,19.50
2013,07,24,11,20,19.50
2013,07,24,11,21,19.30
2013,07,24,11,22,19.30
2013,07,24,11,23,19.20
2013,07,24,11,24,19.20
2013,07,24,11,25,19.20
2013,07,24,11,26,19.20
2013,07,24,11,27,19.20
2013,07,24,11,28,19.20
2013,07,24,11,29,19.20
2013,07,24,11,30,19.30
2013,07,24,11,31,19.40
2013,07,24,11,32,19.40
2013,07,24,11,33,19.40
2013,07,24,11,34,19.40
2013,07,24,11,35,19.50
2013,07,24,11,36,19.60
2013,07,24,11,37,19.70
2013,07,24,11,38,19.80
2013,07,24,11,39,19.90
2013,07,24,11,40,19.90
2013,07,24,11,41,20.00
2013,07,24,11,42,20.00
2013,07,24,11,43,20.00
2013,07,24,11,44,20.00
2013,07,24,11,45,20.00
2013,07,24,11,46,20.00
2013,07,24,11,47,20.00
2013,07,24,11,48,19.90
2013,07,24,11,49,19.90
2013,07,24,11,50,19.90
2013,07,24,11,51,19.90
2013,07,24,11,52,19.90
2013,07,24,11,53,19.90
2013,07,24,11,54,20.00
2013,07,24,11,55,20.10
2013,07,24,11,56,20.20
2013,07,24,11,57,20.20
2013,07,24,11,58,20.30
2013,07,24,11,59,20.30
2013,07,24,12,00,20.30
2013,07,24,12,01,20.40
2013,07,24,12,02,20.40
2013,07,24,12,03,20.30
2013,07,24,12,04,20.20
2013,07,24,12,05,20.20
2013,07,24,12,06,20.10
2013,07,24,12,07,20.10
2013,07,24,12,08,20.00
2013,07,24,12,09,19.80
2013,07,24,12,10,19.70
2013,07,24,12,11,19.70
2013,07,24,12,12,19.80
2013,07,24,12,13,19.90
2013,07,24,12,14,19.90
2013,07,24,12,15,19.90
2013,07,24,12,16,19.90
2013,07,24,12,17,19.90
2013,07,24,12,18,19.90
2013,07,24,12,19,19.90
2013,07,24,12,20,20.00
2013,07,24,12,21,20.00
2013,07,24,12,22,20.10
2013,07,24,12,23,20.10
2013,07,24,12,24,20.20
2013,07,24,12,25,20.10
2013,07,24,12,26,20.10
2013,07,24,12,27,20.00
2013,07,24,12,28,20.10
2013,07,24,12,29,20.10
2013,07,24,12,30,20.20
2013,07,24,12,31,20.20
2013,07,24,12,32,20.30
2013,07,24,12,33,20.40
2013,07,24,12,34,20.50
2013,07,24,12,35,20.60
2013,07,24,12,36,20.60
2013,07,24,12,37,20.50
2013,07,24,12,38,20.40
2013,07,24,12,39,20.30
2013,07,24,12,40,20.30
2013,07,24,12,41,20.30
2013,07,24,12,42,20.30
2013,07,24,12,43,20.30
2013,07,24,12,44,20.30
2013,07,24,12,45,20.30
2013,07,24,12,46,20.40
2013,07,24,12,47,20.40
2013,07,24,12,48,20.50
2013,07,24,12,49,20.60
2013,07,24,12,50,20.60
2013,07,24,12,51,20.60
2013,07,24,12,52,20.70
2013,07,24,12,53,20.80
2013,07,24,12,54,20.90
2013,07,24,12,55,21.10
2013,07,24,12,56,21.10
2013,07,24,12,57,21.10
2013,07,24,12,58,21.00
2013,07,24,12,59,21.00
2013,07,24,13,00,20.90
2013,07,24,13,01,20.90
2013,07,24,13,02,20.80
2013,07,24,13,03,20.80
2013,07,24,13,04,20.80
2013,07,24,13,05,20.80
2013,07,24,13,06,20.80
2013,07,24,13,07,20.80
2013,07,24,13,08,20.80
2013,07,24,13,09,20.80
2013,07,24,13,10,20.70
2013,07,24,13,11,20.70
2013,07,24,13,12,20.70
2013,07,24,13,13,20.70
2013,07,24,13,14,20.60
2013,07,24,13,15,20.60
2013,07,24,13,16,20.60
2013,07,24,13,17,20.60
2013,07,24,13,18,20.60
2013,07,24,13,19,20.60
2013,07,24,13,20,20.60
2013,07,24,13,21,20.80
2013,07,24,13,22,20.90
2013,07,24,13,23,21.00
2013,07,24,13,24,21.00
2013,07,24,13,25,21.00
2013,07,24,13,26,21.00
2013,07,24,13,27,21.00
2013,07,24,13,28,21.10
2013,07,24,13,29,21.20
2013,07,24,13,30,21.20
2013,07,24,13,31,21.20
2013,07,24,13,32,21.20
2013,07,24,13,33,21.30
2013,07,24,13,34,21.40
2013,07,24,13,35,21.40
2013,07,24,13,36,21.30
2013,07,24,13,37,21.30
2013,07,24,13,38,21.30
2013,07,24,13,39,21.30
2013,07,24,13,40,21.30
2013,07,24,13,41,21.30
2013,07,24,13,42,21.30
2013,07,24,13,43,21.30
2013,07,24,13,44,21.30
2013,07,24,13,45,21.30
2013,07,24,13,46,21.30
2013,07,24,13,47,21.30
2013,07,24,13,48,21.30
2013,07,24,13,49,21.30
2013,07,24,13,50,21.20
2013,07,24,13,51,21.20
2013,07,24,13,52,21.20
2013,07,24,13,53,21.30
2013,07,24,13,54,21.30
2013,07,24,13,55,21.20
2013,07,24,13,56,21.10
2013,07,24,13,57,21.10
2013,07,24,13,58,21.10
2013,07,24,13,59,21.00
2013,07,24,14,00,21.10
2013,07,24,14,01,21.10
2013,07,24,14,02,21.10
2013,07,24,14,03,21.10
2013,07,24,14,04,21.20
2013,07,24,14,05,21.20
2013,07,24,14,06,21.20
2013,07,24,14,07,21.10
2013,07,24,14,08,21.10
2013,07,24,14,09,21.10
2013,07,24,14,10,21.10
2013,07,24,14,11,21.20
2013,07,24,14,12,21.20
2013,07,24,14,13,21.20
2013,07,24,14,14,21.30
2013,07,24,14,15,21.30
2013,07,24,14,16,21.40
2013,07,24,14,17,21.50
2013,07,24,14,18,21.50
2013,07,24,14,19,21.60
2013,07,24,14,20,21.60
2013,07,24,14,21,21.70
2013,07,24,14,22,21.70
2013,07,24,14,23,21.70
2013,07,24,14,24,21.70
2013,07,24,14,25,21.70
2013,07,24,14,26,21.70
2013,07,24,14,27,21.70
2013,07,24,14,28,21.80
2013,07,24,14,29,21.80
2013,07,24,14,30,21.80
2013,07,24,14,31,21.80
2013,07,24,14,32,21.80
2013,07,24,14,33,21.80
2013,07,24,14,34,21.80
2013,07,24,14,35,21.70
2013,07,24,14,36,21.80
2013,07,24,14,37,21.80
2013,07,24,14,38,21.80
2013,07,24,14,39,21.80
2013,07,24,14,40,21.80
2013,07,24,14,41,21.80
2013,07,24,14,42,21.80
2013,07,24,14,43,21.80
2013,07,24,14,44,21.80
2013,07,24,14,45,21.80
2013,07,24,14,46,21.80
2013,07,24,14,47,21.80
2013,07,24,14,48,21.70
2013,07,24,14,49,21.70
2013,07,24,14,50,21.60
2013,07,24,14,51,21.60
2013,07,24,14,52,21.60
2013,07,24,14,53,21.50
2013,07,24,14,54,21.50
2013,07,24,14,55,21.40
2013,07,24,14,56,21.40
2013,07,24,14,57,21.40
2013,07,24,14,58,21.40
2013,07,24,14,59,21.40
2013,07,24,15,00,21.40
2013,07,24,15,01,21.40
2013,07,24,15,02,21.50
2013,07,24,15,03,21.50
2013,07,24,15,04,21.60
2013,07,24,15,05,21.60
2013,07,24,15,06,21.60
2013,07,24,15,07,21.60
2013,07,24,15,08,21.60
2013,07,24,15,09,21.60
2013,07,24,15,10,21.70
2013,07,24,15,11,21.80
2013,07,24,15,12,21.90
2013,07,24,15,13,22.00
2013,07,24,15,14,22.20
2013,07,24,15,15,22.40
2013,07,24,15,16,22.50
2013,07,24,15,17,22.60
2013,07,24,15,18,22.80
2013,07,24,15,19,22.80
2013,07,24,15,20,22.90
2013,07,24,15,21,23.00
2013,07,24,15,22,23.00
2013,07,24,15,23,23.10
2013,07,24,15,24,23.10
2013,07,24,15,25,23.20
2013,07,24,15,26,23.20
2013,07,24,15,27,23.20
2013,07,24,15,28,23.20
2013,07,24,15,29,23.20
2013,07,24,15,30,23.20
2013,07,24,15,31,23.30
2013,07,24,15,32,23.30
2013,07,24,15,33,23.30
2013,07,24,15,34,23.30
2013,07,24,15,35,23.40
2013,07,24,15,36,23.40
2013,07,24,15,37,23.50
2013,07,24,15,38,23.50
2013,07,24,15,39,23.60
2013,07,24,15,40,23.70
2013,07,24,15,41,23.80
2013,07,24,15,42,23.90
2013,07,24,15,43,23.90
2013,07,24,15,44,23.90
2013,07,24,15,45,23.90
2013,07,24,15,46,23.80
2013,07,24,15,47,23.80
2013,07,24,15,48,23.80
2013,07,24,15,49,23.80
2013,07,24,15,50,23.80
2013,07,24,15,51,23.80
2013,07,24,15,52,23.80
2013,07,24,15,53,23.80
2013,07,24,15,54,23.90
2013,07,24,15,55,23.90
2013,07,24,15,56,23.90
2013,07,24,15,57,24.00
2013,07,24,15,58,24.00
2013,07,24,15,59,24.00
2013,07,24,16,00,24.00
2013,07,24,16,01,24.00
2013,07,24,16,02,24.00
2013,07,24,16,03,24.10
2013,07,24,16,04,24.10
2013,07,24,16,05,24.10
2013,07,24,16,06,24.10
2013,07,24,16,07,24.20
2013,07,24,16,08,24.20
2013,07,24,16,09,24.20
2013,07,24,16,10,24.20
2013,07,24,16,11,24.10
2013,07,24,16,12,24.10
2013,07,24,16,13,24.20
2013,07,24,16,14,24.20
2013,07,24,16,15,24.30
2013,07,24,16,16,24.30
2013,07,24,16,17,24.30
2013,07,24,16,18,24.40
2013,07,24,16,19,24.40
2013,07,24,16,20,24.50
2013,07,24,16,21,24.60
2013,07,24,16,22,24.60
2013,07,24,16,23,24.70
2013,07,24,16,24,24.80
2013,07,24,16,25,24.80
2013,07,24,16,26,24.80
2013,07,24,16,27,24.80
2013,07,24,16,28,24.80
2013,07,24,16,29,24.80
2013,07,24,16,30,24.90
2013,07,24,16,31,24.90
2013,07,24,16,32,25.00
2013,07,24,16,33,25.00
2013,07,24,16,34,24.90
2013,07,24,16,35,24.90
2013,07,24,16,36,25.00
2013,07,24,16,37,25.00
2013,07,24,16,38,25.00
2013,07,24,16,39,25.10
2013,07,24,16,40,25.00
2013,07,24,16,41,25.00
2013,07,24,16,42,25.00
2013,07,24,16,43,25.00
2013,07,24,16,44,25.00
2013,07,24,16,45,25.10
2013,07,24,16,46,25.10
2013,07,24,16,47,25.20
2013,07,24,16,48,25.20
2013,07,24,16,49,25.20
2013,07,24,16,50,25.20
2013,07,24,16,51,25.20
2013,07,24,16,52,25.20
2013,07,24,16,53,25.20
2013,07,24,16,54,25.20
2013,07,24,16,55,25.30
2013,07,24,16,56,25.30
2013,07,24,16,57,25.40
2013,07,24,16,58,25.40
2013,07,24,16,59,25.40
2013,07,24,17,00,25.40
2013,07,24,17,01,25.40
2013,07,24,17,02,25.40
2013,07,24,17,03,25.30
2013,07,24,17,04,25.30
2013,07,24,17,05,25.30
2013,07,24,17,06,25.30
2013,07,24,17,07,25.30
2013,07,24,17,08,25.30
2013,07,24,17,09,25.30
2013,07,24,17,10,25.30
2013,07,24,17,11,25.30
2013,07,24,17,12,25.30
2013,07,24,17,13,25.30
2013,07,24,17,14,25.30
2013,07,24,17,15,25.30
2013,07,24,17,16,25.20
2013,07,24,17,17,25.20
2013,07,24,17,18,25.20
2013,07,24,17,19,25.30